Regional Weather Roundup
Issued by NWS Northern Indiana

Home | Current Version | Previous Version | Graphics & Text | Print | Product List | Glossary On
Versions: 1 2 3 4 5 6 7 8 9 10 11 12 13 14 15 16 17 18 19 20 21 22 23 24 25 26 27 28 29 30 31 32 33 34 35 36 37 38 39 40 41 42 43 44 45 46 47 48 49 50
000
ASUS43 KIWX 210910
RWRIWX

KIWX WEATHER ROUNDUP
NATIONAL WEATHER SERVICE NORTHERN INDIANA
500 AM EDT THU SEP 21 2017

NOTE: "FAIR" INDICATES FEW OR NO CLOUDS BELOW 12,000 FEET WITH NO
SIGNIFICANT WEATHER AND/OR OBSTRUCTIONS TO VISIBILITY.

* THESE STATIONS ARE NOT UNDER NWS QUALITY CONTROL. THEY ALSO MAY NOT
  REPORT WEATHER SUCH AS PRECIPITATION OR FOG.

INZ001>027-211000-
NORTHERN INDIANA

CITY           SKY/WX    TMP DP  RH WIND       PRES   REMARKS
GARY*          PTCLDY    75  68  79 CALM      29.97R
VALPARAISO     CLOUDY    72  69  90 S3        29.98F
MICHIGAN CITY* MOCLDY    73  66  78 S3        29.98S
LAPORTE*       PTCLDY    68  67  94 CALM      30.00R
KNOX*          PTCLDY    68  68 100 S3        29.98S
SOUTH BEND     PTCLDY    70  69  97 SE3       30.00R
GOSHEN         CLOUDY    72  67  84 S5        30.01R
MONTICELLO*    MOCLDY    70  69  95 CALM      29.99S
LOGANSPORT*    PTCLDY    70  68  94 S5        30.01F
ROCHESTER*     PTCLDY    73  72  94 S5        30.01F
WARSAW*        CLOUDY    70  70 100 CALM      30.01S
AUBURN*        CLOUDY    68  66  94 CALM      30.03F FOG
FORT WAYNE     CLOUDY    67  65  93 S6        30.03F
HUNTINGTON*    PTCLDY    69  68  96 CALM      30.02F
PERU/GRISSOM   CLOUDY    70  70 100 S6        30.01S

$$
INZ028>050-211000-
CENTRAL INDIANA

CITY           SKY/WX    TMP DP  RH WIND       PRES   REMARKS
LAFAYETTE      CLOUDY    70  69  97 CALM      30.00S
KOKOMO*        MOCLDY    69  68  96 S6        30.03F FOG
MUNCIE*        CLEAR     73  68  84 S5        30.05R
INDIANAPOLIS   CLEAR     74  70  87 SE7       30.02S

$$
MIZ043>046-050>051-056>058-064>065-071>073-077>080-211000-
SOUTHWEST LOWER MICHIGAN

CITY           SKY/WX    TMP DP  RH WIND       PRES   REMARKS
BATTLE CREEK   CLOUDY    71  68  90 S6        30.02R
BENTON HARBOR  PTCLDY    73  67  81 S3        29.98R
COLDWATER*     PTCLDY    70  70 100 SE3       30.02S
HILLSDALE*     CLOUDY    68  64  88 CALM      30.04S
HOLLAND        CLOUDY    69  66  90 SE5       29.97F
GRAND RAPIDS   PTCLDY    68  67  96 CALM      29.99S
KALAMAZOO      PTCLDY    72  66  81 S5        30.01R
STURGIS*       CLOUDY    71  69  92 S3        30.01S
THREE RIVERS*  FAIR      71  68  90 S3        30.02R

$$
OHZ001>008-015>018-024>025-211000-
NORTHWEST OHIO

CITY           SKY/WX    TMP DP  RH WIND       PRES   REMARKS
WAUSEON*       FAIR      64  64 100 CALM      30.05S FOG
DEFIANCE       CLOUDY    68  65  90 SE3       30.04S
FINDLAY        CLOUDY    68  64  87 SE5       30.05S
TOLEDO EXPRESS CLOUDY    65  65 100 CALM      30.04S FOG
TOLEDO METCALF CLOUDY    67  65  93 CALM      30.06S
LIMA           MOCLDY    68  67  96 S8        30.07R

$$
AND FOR LAKE MICHIGAN COASTAL AND OPEN LAKE BUOY OBSERVATIONS

STATION/POSITION TEMP    WIND        PRES    VSBY  WAVE
                 AIR SEA DIR/SP/G                  HT/PER
                 (F)     (DEG/KT/KT) (MB)    (MI)  (FT/S)
CALUMET HARBOR    74      CALM  /  1 1013.9R
MICHIGAN CITY     76     160/ 11/ 15   N/A
BURNS HARBOR      75     190/ 11/ 13 1014.9S
SAINT JOSEPH      75     160/  3/  7 1016.3
SOUTH LAKE BUOY   71 69  160/  8/  8 1013.5S         1/ 3
4 MI NW BRIDGMAN  72 69  180/  6/  6 1014.9          1/ 2
MICHIGAN CITY     72 70  180/  6/  6   N/A           1

$$
&&




USA.gov is the U.S. government's official web portal to all federal, state and local government web resources and services.